Home   Weather   Dausa   Past weeks

Flag for India Past Weather in Dausa, Rajasthan, India — Yesterday and Last 2 Weeks

Now
84 °F

Haze.


Feels Like: 88 °F
Forecast: 73 / 96 °F
Wind: 2 mph from North

Location: Jaipur / Sanganer

Current Time: Sep 27, 2016 at 9:13:08 AM

Latest Report: Sep 27, 2016 at 8:30 AM


Visibility: 3 mi

Pressure: 29.86 "Hg

Humidity: 62%

Dew Point: 70 °F

Location of DausaLocation

Past Weather in Dausa — Graph

°F

Dausa Temperature Yesterday

Maximum temperature yesterday: 95 °F (at 2:00 PM)
Minimum temperature yesterday: 77 °F (at 5:00 AM)
Average temperature yesterday: 86 °F

High & Low Weather Summary for the Past Weeks

 TemperatureHumidityPressure
High100 °F (Sep 21, 3:30 PM)94% (Sep 24, 1:30 AM)29.86 "Hg (Sep 24, 1:30 AM)
Low72 °F (Sep 24, 1:00 AM)27% (Sep 17, 4:30 PM)29.56 "Hg (Sep 22, 9:00 AM)
Average87 °F56%29.75 "Hg
* Reported Sep 12 7:30 AM — Sep 27 7:30 AM, Dausa, Weather by CustomWeather, © 2016

Note: Actual official high and low records may vary slightly from our data, if they occured in-between our weather recording intervals... More about our weather records

Advertising

Dausa Weather History for the Previous 24 Hours

Scroll right to see more
 ConditionsComfort  
Time TempWeatherWind HumidityBarometerVisibility
7:30 AM
Tue, Sep 27
79 °FHaze.No wind84%29.83 "Hg3 mi
7:00 AM79 °FHaze.3 mph79%29.83 "Hg3 mi
6:30 AM77 °FHaze.3 mph79%29.83 "Hg3 mi
6:00 AM79 °FHaze.No wind74%29.80 "Hg3 mi
5:30 AM79 °FHaze.2 mph74%29.80 "Hg3 mi
5:00 AM79 °FHaze.No wind74%29.80 "Hg3 mi
4:00 AM79 °FHaze.No wind79%29.77 "Hg3 mi
3:00 AM79 °FHaze.No wind79%29.77 "Hg3 mi
1:00 AM81 °FHaze.No wind74%29.80 "Hg3 mi
12:00 AM81 °FHaze.No wind70%29.80 "Hg3 mi
11:00 PM
Mon, Sep 26
82 °FHaze.2 mph66%29.80 "Hg3 mi
10:30 PM84 °FHaze.5 mph62%29.80 "Hg3 mi
9:30 PM84 °FHaze.5 mph58%29.80 "Hg3 mi
9:00 PM84 °FHaze.5 mph62%29.77 "Hg3 mi
8:00 PM86 °FHaze.No wind59%29.77 "Hg3 mi
7:00 PM86 °FHaze.No wind59%29.74 "Hg3 mi
6:30 PM90 °FHaze.3 mph49%29.74 "Hg3 mi
6:00 PM91 °FHaze.5 mph44%29.74 "Hg3 mi
5:30 PM93 °FPassing clouds.3 mph41%29.71 "Hg4 mi
5:00 PM93 °FPassing clouds.5 mph44%29.71 "Hg4 mi
4:30 PM93 °FPassing clouds.1 mph41%29.74 "Hg4 mi
4:00 PM93 °FScattered clouds.2 mph44%29.74 "Hg4 mi
3:00 PM93 °FScattered clouds.3 mph44%29.74 "Hg4 mi
2:00 PM95 °FScattered clouds.No wind41%29.77 "Hg4 mi
1:30 PM93 °FScattered clouds.5 mph44%29.77 "Hg4 mi
1:00 PM93 °FScattered clouds.3 mph44%29.80 "Hg4 mi
12:30 PM93 °FScattered clouds.6 mph44%29.80 "Hg4 mi
10:30 AM91 °FClear.3 mph52%29.83 "Hg4 mi
10:00 AM90 °FClear.3 mph55%29.83 "Hg4 mi
9:30 AM88 °FClear.6 mph59%29.83 "Hg4 mi
9:00 AM84 °FClear.6 mph70%29.83 "Hg4 mi
Weather by CustomWeather, © 2016

See weather overviewHow to use our weather pages